User: anonymous   Login
Location: Unspecified
(0.0000°N, 0.0000°E)
Time: 05:47:57
(UTC+00:00)
Language:

STARLINK-30753 - Orbit

View from above orbital plane
View from above orbital plane
View from above satellite
View from above satellite

Ground track
Ground track

The orbit is defined by the following mean orbital elements,

1 58175U          26145.19001589 +.00000000 +00000-0 +38675-4 0 00003
2 58175  43.0041  71.4782 0001272 246.0581 114.0138 15.27577162    08
Epoch (UTC): 25 May 2026 04:33:37
Eccentricity: 0.0001272
inclination: 43.0041°
perigee height: 482 km
apogee height: 484 km
right ascension of ascending node: 71.4782°
argument of perigee: 246.0581°
revolutions per day: 15.27577162
mean anomaly at epoch: 114.0138°

The dashed part of the orbit path shows where the satellite is in the earth's shadow,  

DLR